Location: Bamobli
(6.6379°N, 10.9396°W)
Time: 21:05:58
(UTC+00:00)

ARIANE 5 R/B - Pass Details

Date: 07 June 2020
Orbit: 230 x 32598 km, 4.6° (Epoch: 05 July)

Event Time Altitude Azimuth Distance (km) Brightness Sun altitude
Exits shadow 04:26:11 62° 222° (SW) 1,313 2.8 -28.0°
Maximum altitude 04:27:06 69° 177° (S) 1,427 3.1 -27.8°
Drops below altitude 10° 12:49:57 10° 97° (E) 16,780 8.9 73.7°
Sets 13:02:41 0° 95° (E) 14,867 8.5 73.1°
